Beckley, WV

6:25 AM EST on December 13, 2019 (GMT -0500)
Raleigh County Memorial

Weather History for KBKW - November, 2019

Change the Weather History Date:

Tuesday, November 12, 2019

  Actual Average Record
Temperature  
Mean Temperature 32 °F 45 °F  
Max Temperature 48 °F 55 °F 75 °F (1917)
Min Temperature 15 °F 36 °F 14 °F (1950)
Degree Days  
Heating Degree Days 34 20  
Month to date heating degree days 287 215  
Since 1 July heating degree days 553 721  
Cooling Degree Days 0 0  
Month to date cooling degree days 0 0  
Year to date cooling degree days 948 556  
Moisture  
Dew Point 20 °F    
Average Humidity 84    
Maximum Humidity 100    
Minimum Humidity 71    
Precipitation  
Precipitation 0.14 in 0.09 in 1.40 in (2003)
Month to date precipitation 0.46 1.15  
Year to date precipitation 39.12 36.39  
Snow  
Snow 1.80 in 0.00 in 6.30 in (1968)
Month to date snowfall 1.8 0.6  
Since 1 September snowfall 1.8 1.0  
Snow Depth 1.00 in    
Sea Level Pressure  
Sea Level Pressure 30.11 in    
Wind  
Wind Speed 12 mph ()    
Max Wind Speed 22 mph    
Max Gust Speed 29 mph    
Visibility 3.8 miles    
Events Fog , Rain , Snow    
T = Trace of Precipitation, MM = Missing Value Source: Averaged Metar Reports

Daily Weather History Graph

Daily Weather History Graph

Search for Another Location

Airport or City:

Astronomy

Nov. 12, 2019 Rise Set
Actual Time 7:01 AM EST 5:15 PM EST
Civil Twilight 6:33 AM EST 5:43 PM EST
Nautical Twilight 6:01 AM EST 6:14 PM EST
Astronomical Twilight 5:30 AM EST 6:45 PM EST
Moon 5:41 PM EST (11/12) 6:52 AM EST (11/12)
Length of Visible Light 11h 09m
Length of Day
10h 14m
Full, 100% of the Moon is Illuminated
Nov 12
Full
Nov 19
Last Quarter
Nov 26
New
Dec 4
First Quarter
Dec 12
Full

Hourly Weather History & Observations

Time (EST) Temp. Windchill Dew Point Humidity Pressure Visibility Wind Dir Wind Speed Gust Speed Precip Events Conditions
12:00 AM 48.0 °F - 42.1 °F 80% 29.90 in 9.0 mi SW 9.2 mph - 0.01 in Rain Light Rain
12:43 AM 45.0 °F 36.9 °F 41.0 °F 86% 29.91 in 7.0 mi NW 20.7 mph 28.8 mph 0.02 in Rain Light Rain
12:51 AM 41.0 °F 31.9 °F 37.9 °F 89% 29.91 in 5.0 mi NNW 19.6 mph 28.8 mph 0.02 in Rain Light Rain
12:53 AM 41.0 °F 32.8 °F 37.9 °F 89% 29.92 in 6.0 mi NNW 16.1 mph 28.8 mph 0.00 in Rain Light Rain
1:10 AM 39.9 °F 32.9 °F 37.0 °F 89% 29.93 in 10.0 mi NNW 11.5 mph - 0.01 in Rain Light Rain
1:51 AM 37.9 °F 29.6 °F 35.1 °F 89% 29.93 in 7.0 mi NNW 13.8 mph - 0.03 in Rain Light Rain
2:12 AM 37.0 °F 29.3 °F 34.0 °F 89% 29.94 in 10.0 mi NW 11.5 mph 20.7 mph 0.00 in Rain Light Rain
2:45 AM 33.8 °F 24.3 °F 32.0 °F 93% 29.96 in 2.5 mi NW 13.8 mph 21.9 mph 0.00 in Snow Light Snow
3:17 AM 32.0 °F 21.6 °F 30.2 °F 93% 29.98 in 1.8 mi NW 15.0 mph - N/A Snow Light Snow
3:41 AM 30.9 °F 22.2 °F 30.0 °F 96% 29.97 in 2.5 mi NW 10.4 mph - 0.01 in Snow Light Snow
3:51 AM 30.0 °F 20.0 °F 30.0 °F 100% 29.99 in 1.8 mi NW 12.7 mph 19.6 mph 0.01 in Snow Light Snow
3:55 AM 30.0 °F 21.1 °F 28.9 °F 96% 29.97 in 3.0 mi NW 10.4 mph 19.6 mph 0.00 in Snow Light Snow
4:13 AM 28.9 °F 17.3 °F 28.9 °F 100% 29.98 in 1.8 mi North 16.1 mph - 0.00 in Snow Light Snow
4:27 AM 28.9 °F 19.8 °F 28.0 °F 96% 29.98 in 1.5 mi NNW 10.4 mph - 0.00 in Snow Light Snow
4:31 AM 28.9 °F 18.2 °F 28.0 °F 96% 29.98 in 2.0 mi NNW 13.8 mph 20.7 mph 0.00 in Snow Light Snow
4:42 AM 28.9 °F 20.4 °F 28.0 °F 96% 29.99 in 2.0 mi NNW 9.2 mph - 0.00 in Snow Light Snow
4:44 AM 28.9 °F 19.2 °F 28.0 °F 96% 29.99 in 1.8 mi NNW 11.5 mph - 0.00 in Snow Light Snow
4:51 AM 28.9 °F 19.2 °F 28.0 °F 96% 30.02 in 1.2 mi WNW 11.5 mph - 0.00 in Snow Light Snow
4:58 AM 28.9 °F 19.8 °F 28.0 °F 96% 30.00 in 1.0 mi NW 10.4 mph - 0.00 in Snow Light Snow
5:18 AM 28.0 °F 17.0 °F 27.0 °F 96% 30.01 in 0.8 mi NW 13.8 mph 18.4 mph 0.01 in Snow Light Snow
5:21 AM 28.0 °F 18.1 °F 27.0 °F 96% 30.01 in 1.0 mi NW 11.5 mph - 0.02 in Snow Light Snow
5:39 AM 28.0 °F 19.3 °F 27.0 °F 96% 30.02 in 0.8 mi NW 9.2 mph - 0.02 in Snow Light Snow
5:49 AM 28.4 °F 20.4 °F 26.6 °F 93% 30.01 in 0.8 mi NW 8.1 mph 20.7 mph 0.03 in Snow Light Snow
5:51 AM 28.0 °F 18.6 °F 27.0 °F 96% 30.04 in 0.8 mi NW 10.4 mph 20.7 mph 0.03 in Snow Light Snow
6:40 AM 27.0 °F 16.7 °F 25.0 °F 92% 30.03 in 1.5 mi WNW 11.5 mph - 0.04 in Snow Light Snow
6:51 AM 27.0 °F 16.7 °F 25.0 °F 92% 30.08 in 1.8 mi WNW 11.5 mph - 0.04 in Snow Light Snow
6:54 AM 27.0 °F 15.2 °F 25.0 °F 92% 30.04 in 2.0 mi WNW 15.0 mph 19.6 mph 0.00 in Snow Light Snow
7:03 AM 26.1 °F 15.0 °F 24.1 °F 92% 30.05 in 1.8 mi WNW 12.7 mph - 0.00 in Snow Light Snow
7:11 AM 26.1 °F 15.0 °F 24.1 °F 92% 30.05 in 2.5 mi WNW 12.7 mph - 0.00 in Snow Light Snow
7:18 AM 26.1 °F 14.5 °F 24.1 °F 92% 30.05 in 3.0 mi NW 13.8 mph - 0.01 in Snow Light Snow
7:40 AM 26.1 °F 14.5 °F 21.9 °F 84% 30.06 in 3.0 mi NW 13.8 mph 23.0 mph 0.01 in Snow Light Snow
7:51 AM 25.0 °F 13.6 °F 21.9 °F 88% 30.11 in 4.0 mi NW 12.7 mph - 0.01 in Snow Light Snow
8:51 AM 24.1 °F 11.5 °F 21.9 °F 91% 30.14 in 5.0 mi WNW 15.0 mph 21.9 mph 0.00 in   Overcast
9:51 AM 24.1 °F 12.5 °F 21.0 °F 88% 30.14 in 9.0 mi NW 12.7 mph 23.0 mph 0.00 in   Overcast
10:51 AM 23.0 °F 12.4 °F 19.9 °F 88% 30.17 in 5.0 mi NW 10.4 mph 21.9 mph 0.00 in   Overcast
11:08 AM 23.0 °F 10.1 °F 18.0 °F 81% 30.11 in 10.0 mi NNW 15.0 mph 23.0 mph N/A   Overcast
11:41 AM 21.9 °F 8.7 °F 17.1 °F 82% 30.11 in 10.0 mi NNW 15.0 mph - 0.00 in   Overcast
11:51 AM 21.9 °F 9.8 °F 17.1 °F 82% 30.18 in 8.0 mi NW 12.7 mph - 0.00 in Snow Light Snow
12:27 PM 19.9 °F 6.7 °F 15.1 °F 81% 30.12 in 3.0 mi WNW 13.8 mph 23.0 mph 0.00 in Snow Light Snow
1:14 PM 21.0 °F 7.6 °F 15.1 °F 78% 30.12 in 3.0 mi NW 15.0 mph - 0.00 in Snow Light Snow
1:51 PM 21.0 °F 7.6 °F 14.0 °F 74% 30.22 in 6.0 mi NW 15.0 mph 24.2 mph 0.00 in Snow Light Snow
2:09 PM 19.9 °F 6.2 °F 15.1 °F 81% 30.13 in 2.0 mi NNW 15.0 mph 23.0 mph 0.00 in Snow Light Snow
2:31 PM 19.9 °F 5.7 °F 14.0 °F 78% 30.12 in 1.0 mi NNW 16.1 mph 21.9 mph 0.00 in Snow Light Snow
2:38 PM 19.9 °F 7.3 °F 15.1 °F 81% 30.13 in 0.5 mi NNW 12.7 mph - 0.00 in Snow Snow
2:47 PM 19.4 °F 7.9 °F 15.8 °F 86% 30.13 in 0.2 mi NNW 10.4 mph - 0.01 in Fog , Snow Snow
2:58 PM 19.9 °F 6.7 °F 14.0 °F 78% 30.13 in 1.0 mi NW 13.8 mph - 0.00 in Snow Light Snow
3:03 PM 19.9 °F 5.7 °F 14.0 °F 78% 30.14 in 3.0 mi NW 16.1 mph 20.7 mph 0.00 in Snow Light Snow
3:10 PM 19.9 °F 6.7 °F 12.9 °F 74% 30.14 in 6.0 mi NW 13.8 mph - 0.00 in Snow Light Snow
3:24 PM 19.9 °F 9.3 °F 12.0 °F 71% 30.14 in 9.0 mi NW 9.2 mph - 0.00 in   Overcast
3:45 PM 19.4 °F 6.6 °F 12.2 °F 74% 30.14 in 2.0 mi NNW 12.7 mph - 0.00 in Snow Light Snow
3:46 PM 19.4 °F 6.6 °F 14.0 °F 80% 30.14 in 1.5 mi NNW 12.7 mph - 0.00 in Snow Light Snow
3:51 PM 19.9 °F 7.3 °F 15.1 °F 81% 30.26 in 0.8 mi NNW 12.7 mph - 0.00 in Snow Light Snow
3:56 PM 19.9 °F 8.6 °F 15.1 °F 81% 30.14 in 1.0 mi NNW 10.4 mph - 0.00 in Snow Light Snow
4:01 PM 19.9 °F 7.9 °F 15.1 °F 81% 30.14 in 3.0 mi NNW 11.5 mph - 0.00 in Snow Light Snow
4:12 PM 19.9 °F 9.3 °F 14.0 °F 78% 30.14 in 3.0 mi NNW 9.2 mph - 0.00 in Snow Light Snow
4:19 PM 19.9 °F 7.9 °F 14.0 °F 78% 30.14 in 2.0 mi NNW 11.5 mph - 0.00 in Snow Light Snow
4:33 PM 19.9 °F 6.7 °F 12.9 °F 74% 30.14 in 2.5 mi NNW 13.8 mph 20.7 mph 0.00 in Snow Light Snow
4:38 PM 19.9 °F 6.7 °F 14.0 °F 78% 30.15 in 3.0 mi NNW 13.8 mph 20.7 mph 0.00 in Snow Light Snow
4:51 PM 19.9 °F 9.3 °F 12.9 °F 74% 30.27 in 8.0 mi NNW 9.2 mph - 0.00 in   Overcast
4:59 PM 19.9 °F 8.6 °F 14.0 °F 78% 30.16 in 1.5 mi NNW 10.4 mph - 0.00 in Snow Light Snow
5:12 PM 19.0 °F 7.5 °F 14.0 °F 81% 30.16 in 3.0 mi NW 10.4 mph - 0.00 in Snow Light Snow
5:19 PM 19.9 °F 9.3 °F 14.0 °F 78% 30.16 in 2.5 mi NW 9.2 mph - 0.00 in Snow Light Snow
5:24 PM 19.0 °F 8.2 °F 14.0 °F 81% 30.16 in 1.8 mi NNW 9.2 mph - 0.00 in Snow Light Snow
5:29 PM 19.9 °F 8.6 °F 14.0 °F 78% 30.16 in 3.0 mi NNW 10.4 mph - 0.00 in Snow Light Snow
5:39 PM 19.0 °F 7.5 °F 14.0 °F 81% 30.17 in 2.5 mi NNW 10.4 mph - 0.00 in Snow Light Snow
5:49 PM 19.4 °F 6.0 °F 14.0 °F 80% 30.17 in 3.0 mi NNW 13.8 mph 20.7 mph 0.00 in Snow Light Snow
5:51 PM 19.0 °F 6.1 °F 14.0 °F 81% 30.29 in 4.0 mi NNW 12.7 mph - 0.00 in Snow Light Snow
6:13 PM 19.0 °F 7.5 °F 14.0 °F 81% 30.18 in 3.0 mi NNW 10.4 mph 19.6 mph 0.00 in Snow Light Snow
6:27 PM 19.0 °F 3.6 °F 12.9 °F 77% 30.18 in 6.0 mi NW 18.4 mph 21.9 mph 0.00 in Snow Light Snow
6:51 PM 18.0 °F 6.1 °F 12.0 °F 78% 30.32 in 10.0 mi NNW 10.4 mph - 0.00 in   Mostly Cloudy
7:51 PM 18.0 °F 4.8 °F 10.9 °F 74% 30.35 in 10.0 mi NW 12.7 mph - N/A   Mostly Cloudy
8:05 PM 18.0 °F 5.4 °F 10.9 °F 74% 30.22 in 4.0 mi NNW 11.5 mph 18.4 mph 0.00 in Snow Light Snow
8:33 PM 17.1 °F 5.8 °F 12.0 °F 81% 30.22 in 2.5 mi NW 9.2 mph - 0.00 in Snow Light Snow
8:40 PM 17.1 °F 5.8 °F 12.0 °F 81% 30.22 in 6.0 mi NW 9.2 mph - 0.00 in   Haze
8:51 PM 17.1 °F 3.0 °F 10.9 °F 77% 30.37 in 3.0 mi NW 13.8 mph 23.0 mph 0.00 in Snow Light Snow
9:01 PM 17.1 °F 3.6 °F 10.9 °F 77% 30.23 in 2.5 mi NW 12.7 mph - 0.00 in Snow Light Snow
9:08 PM 17.1 °F 4.3 °F 10.9 °F 77% 30.23 in 5.0 mi NW 11.5 mph 19.6 mph 0.00 in Snow Light Snow
9:51 PM 16.0 °F 3.6 °F 9.0 °F 74% 30.40 in 9.0 mi NW 10.4 mph - 0.00 in   Overcast
10:34 PM 16.0 °F 2.3 °F 10.0 °F 77% 30.25 in 5.0 mi NW 12.7 mph 23.0 mph 0.00 in Snow Light Snow
10:51 PM 16.0 °F 2.9 °F 10.0 °F 77% 30.40 in 4.0 mi WNW 11.5 mph - 0.00 in Snow Light Snow
11:51 PM 15.1 °F 4.2 °F 9.0 °F 77% 30.40 in 4.0 mi NW 8.1 mph - 0.00 in Snow Light Snow